www.pogodaiklimat.ru

Погода и климат >> Архив погоды >> Россия >> Краснодарский край >> Тихорецк


ПОГОДА в Тихорецке

  • Прогноз погоды в Тихорецке
  • Монитор погоды в Тихорецке

АРХИВ ПОГОДЫ в Тихорецке

Время (UTC), дата Ветер
(напр.,м/с)
 
Видим.   Явления Облачность Т
(С)
Тd
(С)
f
(%)
Тe
(С)
Тes
(С)
Комфортность P
(гПа)
Po
(гПа)
Тmin
(С)
Tmax
(С)
R
(мм)
R24
(мм)
S
(см)
15 15.09 С 1 10 км ясно +22.7 +5.5 33 +23 +23 комфорт 1019.2 1010.1 +25.9
18 15.09 С 1 10 км ясно +17.6 +2.8 37 +19 +19 1020.8 1011.5
21 15.09 штиль 0 10 км ясно +12.6 +1.8 48 +12 +12 1020.7 1011.2
00 16.09 штиль 0 10 км ясно +10.0 +1.4 55 +10 +10 1020.2 1010.7
03 16.09 СВ 1 10 км ясно +9.8 +1.4 56 +10 +10 1019.3 1009.8 +9.7
06 16.09 штиль 0 10 км ясно +20.1 +5.9 39 +21 +27 комфорт 1017.9 1008.8 +9.2
09 16.09 СЗ 1 10 км ясно +24.4 +5.1 29 +24 +37 комфорт 1016.0 1007.0
12 16.09 З 2 10 км ясно +26.8 +5.2 25 +26 +32 жарко 1013.3 1004.4
15 16.09 З 2 10 км ясно +24.6 +2.9 24 +24 +24 комфорт 1012.5 1003.5 +27.5
18 16.09 штиль 0 10 км ясно +16.9 +1.4 35 +17 +17 1013.3 1004.0
21 16.09 З 1 10 км ясно +13.8 +2.9 48 +14 +14 1013.3 1004.0
00 17.09 Ю 1 10 км ясно +9.9 +4.4 69 +10 +10 1013.2 1003.8
03 17.09 Ю 1 10 км ясно +8.4 +5.0 79 +8 +8 1013.1 1003.6 +8.4
06 17.09 Ю 2 10 км ясно +18.8 +8.9 53 +20 +25 1012.4 1003.3 +8.3
09 17.09 ЮЗ 4 10 км ясно +25.4 +4.4 26 +25 +32 комфорт 1010.8 1001.9
12 17.09 ЮЗ 3 10 км ясно +27.2 +2.7 21 +26 +31 жарко 1009.6 1000.7
15 17.09 З 3 10 км 10/0
[Ci]
+24.1 +6.7 33 +24 +24 комфорт 1009.4 1000.4 +27.4
18 17.09 ЮЗ 2 10 км 10/5 1000 м
[Sc Ac As]
+21.2 +8.0 43 +22 +22 комфорт 1011.0 1002.0
21 17.09 ЮЗ 3 10 км 10/10 600 м
[Sc]
+19.6 +10.5 56 +21 +21 комфорт 1011.2 1002.0
00 18.09 ЮЗ 3
{10}
10 км 10/10 600 м
[Sc]
+19.7 +10.8 56 +21 +21 комфорт 1010.7 1001.6
03 18.09 Ю 3 10 км слаб. ливневой дождь 10/10 600 м
[Cb cap]
+17.2 +14.2 83 +17 +17 1010.2 1001.0 +17.1 1
06 18.09 ЮЗ 2
{10}
10 км в посл. час ливневой дождь 10/8 600 м
[Cb cap Ac lent Ci fib]
+18.4 +17.4 94 +20 +20 1011.7 1002.6 +16.3
09 18.09 ЮЗ 5-14
{14}
10 км {ливн. осадки} 6/6
[Cb cap]
+24.8 +14.5 53 +27 +30 жарко 1010.2 1001.2
12 18.09 Ю 6-13
{16}
10 км {ливн. осадки} 8/4 600 м
[Sc Ac cast Cc]
+25.0 +12.2 45 +27 +28 жарко 1008.7 999.8
15 18.09 ЮЗ 5-12
{15}
10 км 10/5 1000 м
[Sc Ac und]
+24.1 +11.2 44 +25 +25 комфорт 1008.5 999.6 +26.6 15
18 18.09 ЮЗ 1
{13}
10 км слаб. ливневой дождь 10/10 600 м
[Cb cap]
+15.0 +14.1 94 +15 +15 1013.0 1003.7
21 18.09 З 2 10 км 10/10 600 м
[Cb cap]
+14.9 +6.9 59 +15 +15 1015.1 1005.8
00 19.09 З 1 10 км слаб. ливневой дождь 10/10 600 м
[Cb cap]
+12.7 +9.5 81 +13 +13 1017.1 1007.7
03 19.09 Ю 1 10 км {ливн. осадки} 6/3 600 м
[Cb cap Ac lent]
+9.6 +6.9 83 +9 +9 1018.6 1009.1 +9.6 5
06 19.09 З 2 10 км {ливн. осадки} ясно +15.0 +4.9 51 +15 +19 1020.2 1010.8 +9.4
09 19.09 З 2 10 км 10/0
[Cc]
+16.8 +5.4 47 +17 +26 1020.3 1011.0
12 19.09 З 2 10 км 10/6 600 м
[Sc Ac und]
+18.0 +5.2 43 +19 +19 1020.0 1010.7
15 19.09 З 1 10 км 10/10 1000 м
[Cb cap]
+16.1 +5.1 48 +17 +17 1020.1 1010.8 +19.6
18 19.09 З 1 10 км 10/10 1000 м
[Cb cap]
+13.8 +7.2 64 +14 +14 1020.5 1011.1
21 19.09 штиль 0 10 км 10/0
[Ac As]
+12.2 +7.7 74 +12 +12 1020.2 1010.8
00 20.09 штиль 0 10 км 10/0
[Ac As]
+11.5 +7.8 78 +11 +11 1019.8 1010.3
03 20.09 штиль 0 10 км 10/0
[Ac As]
+11.4 +8.3 81 +11 +11 1019.6 1010.1 +11.0
06 20.09 В 1 10 км слаб. ливневой дождь 10/10 600 м
[Cb calv]
+11.6 +8.9 83 +11 +11 1018.3 1008.9 +11.0
09 20.09 С 1 10 км в посл. час ливневой дождь 10/10 600 м
[Cb calv]
+12.3 +8.7 79 +12 +12 1017.2 1007.8
12 20.09 С 2 10 км {ливн. осадки} 10/10 600 м
[Cb calv]
+13.5 +8.2 70 +13 +13 1016.0 1006.7
15 20.09 С 2 10 км слаб. ливневой дождь 10/10 600 м
[Cb calv]
+10.2 +7.0 81 +9 +9 1016.1 1006.6 +13.5 3
18 20.09 СВ 3 10 км {ливн. осадки} 10/10 600 м
[Cb calv]
+8.2 +7.2 93 +5 +5 1017.1 1007.5
21 20.09 штиль 0 10 км {ливн. осадки} 10/10 1000 м
[Cb calv]
+8.2 +7.3 94 +7 +7 1016.7 1007.2
00 21.09 З 1 10 км сильн. ливневой дождь 9/9 600 м
[Cb calv]
+6.8 +6.0 95 +6 +6 1017.1 1007.5
03 21.09 Ю 1 10 км 8/4 1000 м
[Cb calv Ac trans]
+7.0 +6.2 95 +6 +6 1017.0 1007.4 +6.3 7
06 21.09 Ю 2 10 км {ливн. осадки} 10/10 600 м
[Cb cap]
+9.5 +8.7 95 +8 +8 1017.6 1008.1
09 21.09 ЮЗ 3 10 км 6/6 600 м
[Cb cap]
+16.1 +7.5 57 +16 +19 1016.9 1007.6
12 21.09 З 3
{10}
10 км {ливн. осадки} 3/3 1000 м
[Cu med, cong]
+14.8 +4.5 50 +14 +18 1017.4 1008.1
15 21.09 З 2 10 км 1/1 1000 м
[Cu med, cong]
+12.9 +3.9 54 +12 +12 1018.1 1008.7 +16.4 2
18 21.09 Ю 1 10 км ясно +8.4 +4.3 75 +8 +8 1020.2 1010.6
21 21.09 ЮЗ 1 10 км 10/10 600 м
[Cb cap]
+9.0 +4.8 75 +9 +9 1021.0 1011.4
00 22.09 ЮЗ 1 10 км ясно +6.4 +4.0 85 +5 +5 1021.4 1011.7
03 22.09 ЮЗ 2 10 км ясно +6.2 +4.0 86 +4 +4 1021.6 1012.0 +6.0
06 22.09 ЮЗ 3 10 км 8/0
[Ci fib]
+12.6 +5.9 64 +11 +14 1021.5 1012.0
09 22.09 ЮЗ 5-13
{13}
10 км 8/4 1000 м
[Cu med, cong Ci fib]
+16.8 +2.4 38 +16 +19 1019.8 1010.5
12 22.09 ЮЗ 5-13
{16}
10 км 10/10 1000 м
[Sc]
+16.2 +2.4 39 +15 +15 1018.5 1009.2

 

Местоположение метеостанции Тихорецк (Краснодарский край, Россия): широта 45.85 долгота 40.08 высота над уровнем моря 78 м.

В архиве по умолчанию представлена погода в Тихорецке за последнюю неделю. Архивные данные за месяц целиком и за предыдущие месяцы, начиная с января 2011 года, Вы можете получить, выбрав интересующий диапазон дат из раскрывающегося списка и нажав кнопку "Ввод!".


*Определитесь, кто Вы:
робот инопланетянин человек

Внимание! Время в таблицах - всемирное. Для получения местного времени необходимо прибавить поправку, которая равна 3 ч.

Смотрите также архив погоды в соседних городах и на ближайших метеорологических станциях:

Погода в Сосыке (Краснодарский край, Россия) (37 км)
Погода в Кропоткине (Краснодарский край, Россия) (60 км)
Погода в Кореновске (Краснодарский край, Россия) (63 км)
Погода в Белой Глине (Краснодарский край, Россия) (67 км)
Погода в Усть-Лабинске (Краснодарский край, Россия) (74 км)
Погода в Кущевской (Краснодарский край, Россия) (84 км)
Погода в Каневской (Краснодарский край, Россия) (89 км)
Погода в Тимашевске (Краснодарский край, Россия) (93 км)
Погода в Новоалександровске (Ставропольский край, Россия) (95 км)
Погода в Красногвардейском (Ставропольский край, Россия) (109 км)

Пояснения к столбцам:

Ветер - указаны скорость ветра в м/с - средняя за 10 мин, порывы в срок и между сроками (в фигурных скобках) и направление, откуда дует ветер: С - северный, СВ - северо-восточный, В - восточный, ЮВ - юго-восточный, Ю - южный, ЮЗ - юго-западный, З - западный, СЗ - северо-западный.
Видимость - горизонтальная дальность видимости в метрах или километрах. При видимости от 1 до 10 км при отсутствии осадков обычно наблюдается дымка, при ухудшении видимости до 1 км и менее - туман. В сухую погоду видимость может ухудшаться дымом, пылью или мглою.
Явления - указаны атмосферные явления, наблюдавшиеся в срок или в последний час перед сроком; фигурными скобками обозначены явления, наблюдавшиеся между сроками (за 1-3 часа до срока); квадратными скобками обозначены град или гололедные отложения с указанием их диаметра в мм.
Облачность - указаны через наклонную черту общая и нижняя облачность в баллах и высота нижней границы облаков в метрах; квадратными скобками обозначены формы облаков: Ci - перистые, Cs - перисто-слоистые, Cc - перисто-кучевые, Ac - высококучевые, As - высокослоистые, Sc - слоисто-кучевые, Ns - слоисто-дождевые, Cu - кучевые, Cb - кучево-дождевые. Подробнее классификацию облаков см. в Атласе облаков (PDF).
T - Температура воздуха - температура, измеренная на высоте 2 м над землей.
Td - Температура точки росы - температура, при понижении до которой содержащийся в воздухе водяной пар достигнет насыщения.
f - Относительная влажность воздуха - влажноcть воздуха, измеренная на высоте 2 м над землей.
Te - Эффективная температура - температура, которую ощущает одетый по сезону человек в тени. Характеристика душности погоды. При расчете учитывается влияние влажности воздуха и скорости ветра на теплоощущения человека.
Tes - Эффективная температура на солнце - температура, которую ощущает человек, с поправкой на солнечный нагрев. Характеристика знойности погоды. Зависит от высоты солнца над горизонтом, облачности и скорости ветра. Ночью, в пасмурную погоду, а также при ветре 12 м/с и более поправка равна нулю.
P - Атмосферное давление - приведенное к уровню моря атмосферное давление.
Po - Атмосферное давление - измеренное на уровне метеостанции атмосферное давление.
Tmin - Минимальная температура - минимум температуры воздуха на высоте 2 м над землей.
Tmax - Максимальная температура - максимум температуры воздуха на высоте 2 м над землей.
R - Количество осадков - Количество выпавших осадков за период времени, мм. При наведении курсора мыши на число - период времени, за который выпало указанное количество осадков.
R24 - Количество осадков - Количество выпавших осадков за 24 часа, мм.
S - Снежный покров - Высота снежного покрова, см. При наведении курсора мыши на число - состояние снежного покрова и степень покрытия местности в баллах.